Change the Weather History Date:

Tuesday, December 4, 2012

  Actual Average (LFKJ) Record (LFKJ)
Temperature  
Mean Temperature 51 °F -  
Max Temperature 60 °F 59 °F 66 °F (2003)
Min Temperature 42 °F 42 °F 33 °F (2010)
Degree Days  
Heating Degree Days 14    
Growing Degree Days 1 (Base 50)    
Moisture  
Dew Point 37 °F    
Average Humidity 53    
Maximum Humidity 76    
Minimum Humidity 31    
Precipitation  
Precipitation 0.00 in - - ()
Sea Level Pressure  
Sea Level Pressure 29.73 in    
Wind  
Wind Speed 6 mph ()    
Max Wind Speed 21 mph    
Max Gust Speed 43 mph    
Visibility 6.2 miles    
Events Rain    
Averages and records for this station are not official NWS values.
T = Trace of Precipitation, MM = Missing Value Source: Averaged Metar Reports

Daily Weather History Graph

Daily Weather History Graph

Search for Another Location

Airport or City:

Trip Planner

Search our weather history database for the weather conditions in past years. The results will help you decide how hot, cold, wet, or windy it might be!

Date:

Astronomy

Dec. 04, 2012 Rise Set
Actual Time 7:33 AM CET 4:51 PM CET
Civil Twilight 7:02 AM CET 5:22 PM CET
Nautical Twilight 6:27 AM CET 5:57 PM CET
Astronomical Twilight 5:54 AM CET 6:31 PM CET
Moon 10:25 PM CET (12/4) 11:16 AM CET (12/4)
Length of Visible Light 10h 20m
Length of Day
9h 17m
Waning Gibbous, 72% of the Moon is Illuminated
Dec 4
Waning Gibbous
Dec 6
Last Quarter
Dec 13
New
Dec 20
First Quarter
Dec 28
Full

Hourly Weather History & Observations

Time (CET) Temp. Windchill Dew Point Humidity Pressure Visibility Wind Dir Wind Speed Gust Speed Precip Events Conditions
12:00 AM 44.6 °F 42.2 °F 35.6 °F 71% 29.95 in 6.2 mi Variable 4.6 mph - N/A   Partly Cloudy
12:30 AM 44.6 °F 42.2 °F 35.6 °F 71% 29.95 in 6.2 mi Variable 4.6 mph - N/A   Unknown
1:00 AM 42.8 °F - 35.6 °F 76% 29.95 in 6.2 mi Variable 2.3 mph - N/A   Mostly Cloudy
1:30 AM 44.6 °F 42.2 °F 37.4 °F 76% 29.95 in 6.2 mi Variable 4.6 mph - N/A   Mostly Cloudy
2:00 AM 44.6 °F 43.1 °F 35.6 °F 71% 29.92 in 6.2 mi NNE 3.5 mph - N/A   Mostly Cloudy
2:30 AM 46.4 °F 44.3 °F 37.4 °F 71% 29.92 in 6.2 mi North 4.6 mph - N/A   Mostly Cloudy
3:00 AM 44.6 °F 43.1 °F 37.4 °F 76% 29.92 in 6.2 mi Variable 3.5 mph - N/A   Mostly Cloudy
3:30 AM 44.6 °F 42.2 °F 37.4 °F 76% 29.89 in 6.2 mi North 4.6 mph - N/A   Mostly Cloudy
4:00 AM 48.2 °F - 39.2 °F 71% 29.89 in 6.2 mi NW 6.9 mph - N/A   Overcast
4:30 AM 48.2 °F - 39.2 °F 71% 29.86 in 6.2 mi SW 3.5 mph - N/A   Mostly Cloudy
5:00 AM 46.4 °F 44.3 °F 39.2 °F 76% 29.83 in 6.2 mi Variable 4.6 mph - N/A   Partly Cloudy
5:30 AM 48.2 °F - 41.0 °F 76% 29.86 in 6.2 mi South 5.8 mph - N/A Rain Light Rain
6:00 AM 53.6 °F - 42.8 °F 67% 29.83 in 6.2 mi Variable 6.9 mph 24.2 mph N/A   Scattered Clouds
6:30 AM 59.0 °F - 41.0 °F 51% 29.83 in 6.2 mi West 9.2 mph - N/A   Mostly Cloudy
7:00 AM 59.0 °F - 39.2 °F 48% 29.80 in 6.2 mi WNW 5.8 mph - N/A   Overcast
7:30 AM 60.8 °F - 39.2 °F 45% 29.80 in 6.2 mi West 10.4 mph - N/A   Overcast
8:00 AM 60.8 °F - 39.2 °F 45% 29.80 in 6.2 mi West 10.4 mph 24.2 mph N/A   Overcast
8:30 AM 60.8 °F - 39.2 °F 45% 29.80 in 6.2 mi Variable 11.5 mph 23.0 mph N/A   Overcast
9:00 AM 60.8 °F - 37.4 °F 42% 29.77 in 6.2 mi West 10.4 mph 24.2 mph N/A   Overcast
9:30 AM 60.8 °F - 37.4 °F 42% 29.77 in 6.2 mi NNW 8.1 mph - N/A   Overcast
10:00 AM 60.8 °F - 37.4 °F 42% 29.74 in 6.2 mi Variable 5.8 mph - N/A   Mostly Cloudy
10:30 AM 60.8 °F - 37.4 °F 42% 29.74 in 6.2 mi NW 9.2 mph - N/A   Mostly Cloudy
11:00 AM 60.8 °F - 39.2 °F 45% 29.74 in 6.2 mi North 11.5 mph - N/A   Overcast
11:30 AM 60.8 °F - 41.0 °F 48% 29.71 in 6.2 mi NW 8.1 mph - N/A   Overcast
12:00 PM 60.8 °F - 41.0 °F 48% 29.71 in 6.2 mi West 5.8 mph - N/A   Overcast
12:30 PM 59.0 °F - 44.6 °F 59% 29.68 in 6.2 mi NW 10.4 mph - N/A Rain Light Rain
1:00 PM 57.2 °F - 46.4 °F 67% 29.68 in 6.2 mi NW 5.8 mph - N/A Rain Light Rain
1:30 PM 57.2 °F - 46.4 °F 67% 29.65 in 6.2 mi North 5.8 mph - N/A Rain Light Rain
2:00 PM 57.2 °F - 48.2 °F 72% 29.65 in 6.2 mi Variable 1.2 mph - N/A Rain Light Rain
2:30 PM 57.2 °F - 48.2 °F 72% 29.62 in 6.2 mi South 5.8 mph - N/A   Overcast
3:00 PM 59.0 °F - 44.6 °F 59% 29.62 in 6.2 mi Variable 3.5 mph - N/A Rain Light Rain
3:30 PM 57.2 °F - 41.0 °F 55% 29.62 in 6.2 mi SSW 6.9 mph - N/A   Mostly Cloudy
4:00 PM 57.2 °F - 35.6 °F 44% 29.59 in 6.2 mi Variable 3.5 mph - N/A   Scattered Clouds
4:30 PM 57.2 °F - 37.4 °F 48% 29.59 in 6.2 mi Variable 8.1 mph - N/A   Mostly Cloudy
5:00 PM 57.2 °F - 33.8 °F 41% 29.59 in 6.2 mi Variable 4.6 mph - N/A   Partly Cloudy
5:30 PM 57.2 °F - 33.8 °F 41% 29.59 in 6.2 mi West 11.5 mph 27.6 mph N/A   Scattered Clouds
6:00 PM 55.4 °F - 35.6 °F 47% 29.59 in 6.2 mi West 12.7 mph 26.5 mph N/A   Partly Cloudy
6:30 PM 53.6 °F - 35.6 °F 51% 29.59 in 6.2 mi WNW 12.7 mph 34.5 mph N/A Rain Light Rain
7:00 PM 57.2 °F - 30.2 °F 36% 29.59 in 6.2 mi WNW 20.7 mph 42.6 mph N/A   Partly Cloudy
7:30 PM 55.4 °F - 28.4 °F 36% 29.59 in 6.2 mi WNW 15.0 mph 27.6 mph N/A   Unknown
8:00 PM 55.4 °F - 26.6 °F 33% 29.56 in 6.2 mi West 17.3 mph 33.4 mph N/A   Unknown
8:30 PM 55.4 °F - 28.4 °F 36% 29.59 in 6.2 mi NW 13.8 mph 29.9 mph N/A   Unknown
9:00 PM 55.4 °F - 26.6 °F 33% 29.56 in 6.2 mi WNW 15.0 mph 31.1 mph N/A   Unknown
9:30 PM 55.4 °F - 24.8 °F 31% 29.59 in 6.2 mi WNW 12.7 mph 31.1 mph N/A   Unknown
10:00 PM 55.4 °F - 26.6 °F 33% 29.62 in 6.2 mi NW 12.7 mph 31.1 mph N/A   Unknown
10:30 PM 55.4 °F - 26.6 °F 33% 29.65 in 6.2 mi NW 10.4 mph - N/A   Unknown
11:00 PM 55.4 °F - 28.4 °F 36% 29.65 in 6.2 mi NW 9.2 mph - N/A   Unknown
11:30 PM 55.4 °F - 26.6 °F 33% 29.65 in 6.2 mi Variable 8.1 mph 23.0 mph N/A   Partly Cloudy